Location: Unspecified
(42.9300°N, 71.1866°W)
Time: 16:20:32
(UTC-04:00)

Envisat - Visible Passes

Search period start: 01 September 2015 00:00
Search period end: 11 September 2015 00:00
Orbit: 765 x 766 km, 98.3° (Epoch: 01 September)

Date Brightness Start Highest point End Pass type
(mag) Time Alt. Az. Time Alt. Az. Time Alt. Az.
01 Sep 2.9 21:27:32 53° SE 21:28:32 68° ENE 21:33:36 10° N visible
01 Sep 5.3 23:07:45 15° W 23:08:09 15° W 23:10:52 10° NW visible
02 Sep 3.9 20:50:34 27° E 20:52:04 32° ENE 20:56:34 10° N visible
02 Sep 4.3 22:30:47 32° WSW 22:31:04 32° W 22:35:36 10° NNW visible
03 Sep 4.7 20:13:37 12° E 20:15:45 16° ENE 20:18:51 10° NNE visible
03 Sep 3.0 21:53:50 67° SW 21:54:16 71° WSW 21:59:22 10° NNW visible
04 Sep 3.1 21:16:53 48° ESE 21:17:41 54° ENE 21:22:39 10° N visible
04 Sep 5.1 22:57:06 19° W 22:57:06 19° W 23:00:34 10° NW visible
05 Sep 4.1 20:39:55 23° E 20:41:15 26° ENE 20:45:27 10° N visible
05 Sep 4.0 22:20:09 40° W 22:20:09 40° W 22:24:53 10° NNW visible
06 Sep 4.9 20:02:58 10° E 20:05:00 13° ENE 20:07:20 10° NNE visible
06 Sep 2.8 21:43:11 83° S 21:43:23 88° WSW 21:48:30 10° NNW visible
06 Sep 5.7 23:23:24 10° W 23:23:24 10° W 23:23:43 10° W visible
07 Sep 3.4 21:06:14 41° E 21:06:50 43° ENE 21:11:39 10° N visible
07 Sep 4.9 22:46:28 23° W 22:46:28 23° W 22:50:04 10° NW visible
08 Sep 4.3 20:29:17 19° E 20:30:27 21° ENE 20:34:17 10° NNE visible
08 Sep 3.7 22:09:31 50° W 22:09:31 50° W 22:14:08 10° NNW visible
09 Sep 5.0 19:53:42 10° ENE 19:54:15 10° ENE 19:55:06 10° NE visible
09 Sep 2.9 21:32:33 74° ENE 21:32:33 74° ENE 21:37:36 10° N visible
09 Sep 5.6 23:12:46 13° W 23:12:46 13° W 23:14:29 10° WNW visible
10 Sep 3.7 20:55:36 34° ENE 20:56:00 35° ENE 21:00:37 10° N visible
10 Sep 4.7 22:35:49 28° W 22:35:49 28° W 22:39:28 10° NW visible
